Location: Gwatt
(46.7204°N, 7.6223°E)
Time: 01:07:13
(UTC+00:00)

Tsikada Rocket - Pass Details

Date: 18 September 2020
Orbit: 958 x 1009 km, 82.9° (Epoch: 31 October)

Event Time Altitude Azimuth Distance (km) Brightness Sun altitude
Rises 17:54:11 0° 350° (N) 3,656 7.2 -4.2°
Reaches altitude 10° 17:56:42 10° 350° (N) 2,703 6.6 -4.6°
Maximum altitude 18:02:53 86° 263° (W) 968 4.1 -5.7°
Drops below altitude 10° 18:09:02 10° 176° (S) 2,688 6.2 -6.7°
Sets 18:11:32 0° 175° (S) 3,634 6.8 -7.1°
